• In Netherlands
  • List of Countries
  • For 7 days
  • Water Temperature
  • Satellite Maps
  • Weather Map
  • Weather Widgets
  • user-avatar
    Login

    Hourly Weather Asadabad

    Today, 24 April, Monday

    Time Temperature Precipitation Wind Pressure Humidity
    00:00 +17°C° 0 mm 2 mps 656 mmHg 45%
    01:00 +16°C° 0 mm 2 mps 655 mmHg 45%
    02:00 +16°C° 0 mm 2 mps 655 mmHg 45%
    03:00 +16°C° 0 mm 2 mps 655 mmHg 44%
    04:00 +15°C° 0 mm 2 mps 655 mmHg 43%
    05:00 +15°C° 0 mm 2 mps 655 mmHg 42%
    06:00 +17°C° 0 mm 2 mps 655 mmHg 38%
    07:00 +19°C° 0 mm 1 mps 656 mmHg 34%
    08:00 +20°C° 0 mm 1 mps 656 mmHg 30%
    09:00 +21°C° 0 mm 1 mps 657 mmHg 30%
    10:00 +22°C° 0 mm 1 mps 657 mmHg 29%
    11:00 +23°C° 0 mm 2 mps 657 mmHg 29%
    12:00 +24°C° 0 mm 2 mps 657 mmHg 29%
    13:00 +24°C° 0 mm 2 mps 657 mmHg 29%
    14:00 +25°C° 0 mm 2 mps 658 mmHg 29%
    15:00 +24°C° 0.1 mm 2 mps 657 mmHg 30%
    16:00 +24°C° 0.1 mm 2 mps 657 mmHg 31%
    17:00 +24°C° 0.1 mm 2 mps 657 mmHg 32%
    18:00 +22°C° 0.1 mm 1 mps 657 mmHg 37%
    19:00 +21°C° 0.1 mm 1 mps 657 mmHg 42%
    20:00 +19°C° 0.1 mm 1 mps 657 mmHg 46%
    21:00 +19°C° 0 mm 1 mps 657 mmHg 48%
    22:00 +18°C° 0 mm 1 mps 657 mmHg 49%
    23:00 +18°C° 0 mm 1 mps 657 mmHg 50%

    Tomorrow, 25 April, Tuesday

    Time Temperature Precipitation Wind Pressure Humidity
    00:00 +18°C° 0 mm 1 mps 656 mmHg 50%
    01:00 +16°C° 0 mm 1 mps 656 mmHg 51%
    02:00 +16°C° 0 mm 1 mps 656 mmHg 52%
    03:00 +15°C° 0 mm 1 mps 655 mmHg 52%
    04:00 +15°C° 0 mm 1 mps 655 mmHg 52%
    05:00 +15°C° 0 mm 1 mps 655 mmHg 52%
    06:00 +16°C° 0 mm 1 mps 656 mmHg 46%
    07:00 +19°C° 0 mm 1 mps 656 mmHg 40%
    08:00 +21°C° 0 mm 1 mps 657 mmHg 34%
    09:00 +22°C° 0 mm 1 mps 657 mmHg 32%
    10:00 +23°C° 0 mm 1 mps 657 mmHg 30%
    11:00 +25°C° 0 mm 1 mps 658 mmHg 29%
    12:00 +25°C° 0 mm 2 mps 657 mmHg 28%
    13:00 +26°C° 0 mm 2 mps 657 mmHg 27%
    14:00 +26°C° 0 mm 2 mps 657 mmHg 26%
    15:00 +26°C° 0.1 mm 2 mps 657 mmHg 27%
    16:00 +26°C° 0.1 mm 2 mps 657 mmHg 27%
    17:00 +26°C° 0.1 mm 2 mps 656 mmHg 28%
    18:00 +24°C° 0.1 mm 1 mps 656 mmHg 32%
    19:00 +23°C° 0.1 mm 1 mps 656 mmHg 37%
    20:00 +21°C° 0.1 mm 1 mps 656 mmHg 41%
    21:00 +21°C° 0.2 mm 1 mps 656 mmHg 43%
    22:00 +20°C° 0.2 mm 1 mps 656 mmHg 44%
    23:00 +20°C° 0.2 mm 1 mps 656 mmHg 45%

    Day after tomorrow, 26 April, Wednesday

    Time Temperature Precipitation Wind Pressure Humidity
    00:00 +19°C° 0 mm 1 mps 656 mmHg 45%
    01:00 +18°C° 0 mm 2 mps 656 mmHg 45%
    02:00 +17°C° 0 mm 2 mps 655 mmHg 45%
    03:00 +17°C° 0 mm 2 mps 655 mmHg 44%
    04:00 +17°C° 0 mm 2 mps 655 mmHg 43%
    05:00 +16°C° 0 mm 2 mps 655 mmHg 42%
    06:00 +18°C° 0 mm 2 mps 656 mmHg 38%
    07:00 +20°C° 0 mm 2 mps 657 mmHg 34%
    08:00 +23°C° 0 mm 2 mps 658 mmHg 29%
    09:00 +24°C° 0 mm 2 mps 658 mmHg 26%
    10:00 +25°C° 0 mm 1 mps 658 mmHg 24%
    11:00 +26°C° 0 mm 1 mps 658 mmHg 21%
    12:00 +27°C° 0 mm 1 mps 658 mmHg 20%
    13:00 +27°C° 0 mm 2 mps 658 mmHg 20%
    14:00 +28°C° 0 mm 2 mps 658 mmHg 19%
    15:00 +28°C° 0 mm 2 mps 658 mmHg 20%
    16:00 +28°C° 0 mm 2 mps 657 mmHg 20%
    17:00 +27°C° 0 mm 2 mps 657 mmHg 21%
    18:00 +25°C° 0 mm 2 mps 657 mmHg 25%
    19:00 +23°C° 0 mm 1 mps 657 mmHg 29%
    20:00 +21°C° 0 mm 1 mps 657 mmHg 33%
    21:00 +21°C° 0 mm 1 mps 657 mmHg 33%
    22:00 +20°C° 0 mm 2 mps 658 mmHg 34%
    23:00 +19°C° 0 mm 2 mps 658 mmHg 34%

    27 April, Thursday

    Time Temperature Precipitation Wind Pressure Humidity
    00:00 +19°C° 0 mm 2 mps 658 mmHg 35%
    01:00 +18°C° 0 mm 2 mps 657 mmHg 35%
    02:00 +18°C° 0 mm 2 mps 657 mmHg 36%
    03:00 +18°C° 0 mm 2 mps 657 mmHg 36%
    04:00 +17°C° 0 mm 3 mps 657 mmHg 37%
    05:00 +17°C° 0 mm 3 mps 657 mmHg 38%
    06:00 +19°C° 0 mm 2 mps 658 mmHg 34%
    07:00 +20°C° 0 mm 2 mps 659 mmHg 30%
    08:00 +23°C° 0 mm 2 mps 659 mmHg 27%
    09:00 +24°C° 0 mm 2 mps 659 mmHg 24%
    10:00 +26°C° 0 mm 2 mps 660 mmHg 22%
    11:00 +27°C° 0 mm 1 mps 660 mmHg 19%
    12:00 +27°C° 0 mm 2 mps 660 mmHg 19%
    13:00 +28°C° 0 mm 2 mps 659 mmHg 19%
    14:00 +28°C° 0 mm 2 mps 659 mmHg 19%
    15:00 +28°C° 0 mm 2 mps 659 mmHg 20%
    16:00 +28°C° 0 mm 2 mps 658 mmHg 20%
    17:00 +28°C° 0 mm 2 mps 658 mmHg 21%
    18:00 +26°C° 0 mm 2 mps 658 mmHg 26%
    19:00 +24°C° 0 mm 1 mps 658 mmHg 30%
    20:00 +22°C° 0 mm 1 mps 658 mmHg 34%
    21:00 +21°C° 0 mm 1 mps 658 mmHg 35%
    22:00 +21°C° 0 mm 1 mps 658 mmHg 35%
    23:00 +20°C° 0 mm 2 mps 658 mmHg 36%

    28 April, Friday

    Time Temperature Precipitation Wind Pressure Humidity
    00:00 +19°C° 0 mm 2 mps 658 mmHg 37%
    01:00 +19°C° 0 mm 2 mps 658 mmHg 38%
    02:00 +18°C° 0 mm 2 mps 657 mmHg 38%
    03:00 +18°C° 0 mm 2 mps 657 mmHg 39%
    04:00 +18°C° 0 mm 2 mps 657 mmHg 39%
    05:00 +17°C° 0 mm 2 mps 657 mmHg 40%
    06:00 +19°C° 0 mm 2 mps 658 mmHg 36%
    07:00 +21°C° 0 mm 2 mps 658 mmHg 33%
    08:00 +24°C° 0 mm 2 mps 659 mmHg 29%
    09:00 +25°C° 0 mm 2 mps 659 mmHg 27%
    10:00 +26°C° 0 mm 2 mps 659 mmHg 25%
    11:00 +27°C° 0 mm 2 mps 659 mmHg 24%
    12:00 +28°C° 0 mm 2 mps 659 mmHg 23%
    13:00 +28°C° 0 mm 2 mps 659 mmHg 23%
    14:00 +29°C° 0 mm 3 mps 658 mmHg 22%
    15:00 +28°C° 0.1 mm 3 mps 658 mmHg 23%
    16:00 +28°C° 0.1 mm 2 mps 658 mmHg 23%
    17:00 +28°C° 0.1 mm 2 mps 658 mmHg 24%
    18:00 +26°C° 0.1 mm 2 mps 658 mmHg 29%
    19:00 +24°C° 0.1 mm 2 mps 658 mmHg 33%
    20:00 +21°C° 0.1 mm 2 mps 658 mmHg 38%
    21:00 +20°C° 0.1 mm 2 mps 658 mmHg 40%
    22:00 +20°C° 0.1 mm 2 mps 658 mmHg 42%
    23:00 +19°C° 0.1 mm 2 mps 658 mmHg 43%

    29 April, Saturday

    Time Temperature Precipitation Wind Pressure Humidity
    00:00 +19°C° 0 mm 2 mps 657 mmHg 44%
    01:00 +18°C° 0 mm 2 mps 657 mmHg 44%
    02:00 +18°C° 0 mm 2 mps 656 mmHg 45%
    03:00 +18°C° 0 mm 2 mps 656 mmHg 45%
    04:00 +17°C° 0 mm 3 mps 656 mmHg 45%
    05:00 +17°C° 0 mm 3 mps 656 mmHg 44%
    06:00 +18°C° 0 mm 2 mps 657 mmHg 40%
    07:00 +20°C° 0 mm 2 mps 657 mmHg 35%
    08:00 +21°C° 0 mm 2 mps 658 mmHg 30%
    09:00 +23°C° 0 mm 2 mps 658 mmHg 28%
    10:00 +24°C° 0 mm 2 mps 658 mmHg 26%
    11:00 +25°C° 0 mm 2 mps 658 mmHg 24%
    12:00 +26°C° 0 mm 2 mps 658 mmHg 23%
    13:00 +26°C° 0 mm 2 mps 658 mmHg 23%
    14:00 +27°C° 0 mm 2 mps 658 mmHg 22%
    15:00 +27°C° 0.1 mm 2 mps 657 mmHg 21%
    16:00 +27°C° 0.1 mm 2 mps 657 mmHg 20%
    17:00 +26°C° 0.1 mm 2 mps 657 mmHg 20%
    18:00 +24°C° 0 mm 2 mps 657 mmHg 23%
    19:00 +23°C° 0 mm 2 mps 657 mmHg 26%
    20:00 +20°C° 0 mm 3 mps 656 mmHg 29%
    21:00 +19°C° 0 mm 3 mps 656 mmHg 31%
    22:00 +18°C° 0 mm 3 mps 656 mmHg 32%
    23:00 +18°C° 0 mm 3 mps 656 mmHg 34%
    Show more